Weather History for KTVF - May, 2009

Change the Weather History Date:

Wednesday, May 13, 2009

  Actual Average Record
Temperature  
Mean Temperature 48 °F -  
Max Temperature 60 °F 58 °F 91 °F (1977)
Min Temperature 35 °F 39 °F 24 °F (1983)
Degree Days  
Heating Degree Days 18    
Moisture  
Dew Point 46 °F    
Average Humidity 78    
Maximum Humidity 94    
Minimum Humidity 59    
Precipitation  
Precipitation 0.46 in - - ()
Sea Level Pressure  
Sea Level Pressure 29.42 in    
Wind  
Wind Speed 22 mph (WSW)    
Max Wind Speed 28 mph    
Max Gust Speed 39 mph    
Visibility 10 miles    
Events Thunderstorm    
Averages and records for this station are not official NWS values.
T = Trace of Precipitation, MM = Missing Value Source: NWS Daily Summary

Daily Weather History Graph

Daily Weather History Graph

Search for Another Location

Airport or City:

Trip Planner

Search our weather history database for the weather conditions in past years. The results will help you decide how hot, cold, wet, or windy it might be!

Date:

Astronomy

May. 13, 2009 Rise Set
Actual Time 5:48 AM CDT 8:54 PM CDT
Civil Twilight 5:11 AM CDT 9:31 PM CDT
Nautical Twilight 4:23 AM CDT 10:19 PM CDT
Astronomical Twilight 3:24 AM CDT 11:19 PM CDT
Moon 12:43 AM CDT (5/13) 8:49 AM CDT (5/13)
Length of Visible Light 16h 20m
Length of Day
15h 06m
Waning Gibbous, 82% of the Moon is Illuminated
May 13
Waning Gibbous
May 17
Last Quarter
May 24
New
May 30
First Quarter
Jun 7
Full

Hourly Weather History & Observations

Time (CDT) Temp. Windchill Dew Point Humidity Pressure Visibility Wind Dir Wind Speed Gust Speed Precip Events Conditions
12:15 AM 57.2 °F - 53.6 °F 88% 29.41 in 9.0 mi South 20.7 mph 25.3 mph 0.01 in   Overcast
12:35 AM 57.2 °F - 53.6 °F 88% 29.42 in 7.0 mi South 20.7 mph 32.2 mph 0.06 in   Overcast
12:55 AM 57.2 °F - 55.4 °F 94% 29.40 in 6.0 mi South 20.7 mph 28.8 mph 0.12 in   Overcast
1:15 AM 55.4 °F - 53.6 °F 94% 29.38 in 6.0 mi SSE 18.4 mph 27.6 mph 0.10 in   Mostly Cloudy
1:35 AM 55.4 °F - 53.6 °F 94% 29.36 in 9.0 mi SSE 20.7 mph 27.6 mph 0.14 in   Overcast
1:55 AM 55.4 °F - 53.6 °F 94% 29.35 in 10.0 mi SSE 24.2 mph 28.8 mph 0.14 in   Overcast
2:15 AM 55.4 °F - 53.6 °F 94% 29.33 in 10.0 mi SSE 23.0 mph 31.1 mph 0.06 in   Overcast
2:35 AM 55.4 °F - 53.6 °F 94% 29.31 in 10.0 mi South 21.9 mph 26.5 mph 0.06 in   Overcast
2:55 AM 55.4 °F - 53.6 °F 94% 29.31 in 10.0 mi South 26.5 mph 32.2 mph 0.06 in   Overcast
3:15 AM 55.4 °F - 53.6 °F 94% 29.30 in 10.0 mi South 23.0 mph 32.2 mph N/A   Overcast
3:35 AM 55.4 °F - 53.6 °F 94% 29.29 in 9.0 mi South 20.7 mph 27.6 mph 0.03 in   Overcast
3:55 AM 57.2 °F - 55.4 °F 94% 29.29 in 10.0 mi SSW 19.6 mph 32.2 mph 0.06 in   Overcast
4:15 AM 55.4 °F - 53.6 °F 94% 29.29 in 10.0 mi SW 19.6 mph 29.9 mph 0.04 in   Overcast
4:35 AM 55.4 °F - 51.8 °F 88% 29.29 in 10.0 mi SW 20.7 mph 31.1 mph 0.04 in   Overcast
4:55 AM 53.6 °F - 50.0 °F 88% 29.29 in 10.0 mi SW 23.0 mph 31.1 mph 0.04 in   Mostly Cloudy
5:15 AM 53.6 °F - 48.2 °F 82% 29.30 in 10.0 mi SW 18.4 mph 28.8 mph N/A   Scattered Clouds
5:35 AM 51.8 °F - 48.2 °F 88% 29.30 in 10.0 mi SW 23.0 mph 28.8 mph N/A   Mostly Cloudy
5:55 AM 51.8 °F - 46.4 °F 82% 29.31 in 10.0 mi SW 18.4 mph 24.2 mph N/A   Partly Cloudy
6:15 AM 50.0 °F - 44.6 °F 82% 29.31 in 10.0 mi SW 19.6 mph 27.6 mph N/A   Clear
6:35 AM 50.0 °F - 44.6 °F 82% 29.33 in 10.0 mi SW 17.3 mph 24.2 mph N/A   Clear
6:55 AM 50.0 °F - 44.6 °F 82% 29.34 in 10.0 mi SW 19.6 mph 26.5 mph N/A   Mostly Cloudy
7:35 AM 51.8 °F - 44.6 °F 76% 29.35 in 10.0 mi SW 20.7 mph 26.5 mph N/A   Overcast
7:55 AM 51.8 °F - 44.6 °F 76% 29.35 in 10.0 mi SW 16.1 mph 27.6 mph N/A   Overcast
8:15 AM 51.8 °F - 46.4 °F 82% 29.35 in 10.0 mi SW 23.0 mph 28.8 mph N/A   Overcast
8:35 AM 51.8 °F - 46.4 °F 82% 29.35 in 10.0 mi SW 21.9 mph 31.1 mph N/A   Overcast
8:55 AM 51.8 °F - 46.4 °F 82% 29.36 in 10.0 mi SW 26.5 mph 33.4 mph N/A   Overcast
9:15 AM 53.6 °F - 46.4 °F 77% 29.37 in 10.0 mi SW 21.9 mph 31.1 mph N/A   Overcast
9:35 AM 53.6 °F - 46.4 °F 77% 29.37 in 10.0 mi SW 23.0 mph 29.9 mph N/A   Overcast
9:55 AM 53.6 °F - 48.2 °F 82% 29.37 in 10.0 mi SW 24.2 mph 27.6 mph N/A   Overcast
10:15 AM 53.6 °F - 46.4 °F 77% 29.37 in 10.0 mi SW 24.2 mph 31.1 mph N/A   Overcast
10:35 AM 55.4 °F - 46.4 °F 72% 29.38 in 10.0 mi WSW 20.7 mph 31.1 mph N/A   Overcast
10:55 AM 55.4 °F - 46.4 °F 72% 29.39 in 10.0 mi WSW 25.3 mph 31.1 mph N/A   Mostly Cloudy
11:15 AM 57.2 °F - 48.2 °F 72% 29.39 in 10.0 mi WSW 25.3 mph 32.2 mph N/A   Mostly Cloudy
11:35 AM 57.2 °F - 48.2 °F 72% 29.39 in 10.0 mi WSW 26.5 mph 34.5 mph N/A   Mostly Cloudy
11:55 AM 57.2 °F - 46.4 °F 67% 29.40 in 10.0 mi WSW 26.5 mph 35.7 mph N/A   Overcast
12:15 PM 57.2 °F - 48.2 °F 72% 29.41 in 10.0 mi WSW 26.5 mph - N/A   Overcast
12:35 PM 59.0 °F - 48.2 °F 67% 29.41 in 10.0 mi WSW 27.6 mph 34.5 mph N/A   Mostly Cloudy
12:55 PM 59.0 °F - 46.4 °F 63% 29.42 in 10.0 mi WSW 24.2 mph 31.1 mph N/A   Mostly Cloudy
1:15 PM 60.8 °F - 48.2 °F 63% 29.41 in 10.0 mi WSW 24.2 mph 33.4 mph N/A   Mostly Cloudy
1:35 PM 60.8 °F - 48.2 °F 63% 29.42 in 10.0 mi WSW 23.0 mph 32.2 mph N/A   Mostly Cloudy
1:55 PM 60.8 °F - 46.4 °F 59% 29.42 in 10.0 mi WSW 23.0 mph 32.2 mph N/A   Mostly Cloudy
2:15 PM 59.0 °F - 46.4 °F 63% 29.43 in 10.0 mi WSW 24.2 mph 29.9 mph N/A   Mostly Cloudy
2:35 PM 59.0 °F - 46.4 °F 63% 29.43 in 10.0 mi WSW 21.9 mph 33.4 mph N/A   Scattered Clouds
2:55 PM 60.8 °F - 46.4 °F 59% 29.43 in 10.0 mi WSW 23.0 mph 36.8 mph N/A   Scattered Clouds
3:15 PM 60.8 °F - 48.2 °F 63% 29.44 in 10.0 mi West 25.3 mph 31.1 mph N/A   Mostly Cloudy
3:35 PM 60.8 °F - 46.4 °F 59% 29.44 in 10.0 mi West 25.3 mph 29.9 mph N/A   Mostly Cloudy
3:55 PM 59.0 °F - 44.6 °F 59% 29.45 in 10.0 mi West 25.3 mph 34.5 mph N/A Thunderstorm Mostly Cloudy
4:15 PM 57.2 °F - 46.4 °F 67% 29.46 in 10.0 mi West 26.5 mph 32.2 mph N/A Thunderstorm Overcast
4:35 PM 57.2 °F - 44.6 °F 63% 29.47 in 10.0 mi West 24.2 mph 33.4 mph N/A   Mostly Cloudy
4:55 PM 57.2 °F - 44.6 °F 63% 29.48 in 10.0 mi West 25.3 mph 32.2 mph N/A   Mostly Cloudy
5:15 PM 55.4 °F - 44.6 °F 67% 29.49 in 10.0 mi West 24.2 mph 32.2 mph N/A   Mostly Cloudy
5:35 PM 55.4 °F - 42.8 °F 63% 29.50 in 10.0 mi WNW 23.0 mph 29.9 mph N/A   Overcast
5:55 PM 53.6 °F - 42.8 °F 67% 29.51 in 10.0 mi WNW 23.0 mph 33.4 mph N/A   Overcast
6:15 PM 51.8 °F - 42.8 °F 71% 29.53 in 10.0 mi WNW 21.9 mph 39.1 mph N/A   Mostly Cloudy
6:35 PM 50.0 °F - 44.6 °F 82% 29.53 in 10.0 mi WNW 19.6 mph - N/A   Mostly Cloudy
6:55 PM 46.4 °F 38.3 °F 41.0 °F 81% 29.55 in 10.0 mi NW 23.0 mph 27.6 mph N/A   Mostly Cloudy
7:15 PM 42.8 °F 34.5 °F 37.4 °F 81% 29.57 in 10.0 mi WNW 18.4 mph - N/A   Overcast
7:35 PM 42.8 °F 32.7 °F 37.4 °F 81% 29.57 in 10.0 mi NW 27.6 mph 32.2 mph N/A   Overcast
7:55 PM 39.2 °F 28.7 °F 35.6 °F 87% 29.59 in 8.0 mi NW 23.0 mph 31.1 mph 0.01 in   Overcast
8:15 PM 39.2 °F 28.5 °F 35.6 °F 87% 29.60 in 9.0 mi NW 24.2 mph 31.1 mph N/A   Overcast
8:35 PM 37.4 °F 25.4 °F 33.8 °F 87% 29.62 in 7.0 mi NW 27.6 mph 34.5 mph 0.01 in   Mostly Cloudy
8:55 PM 37.4 °F 26.1 °F 33.8 °F 87% 29.63 in 5.0 mi NW 24.2 mph 28.8 mph 0.03 in   Overcast
9:15 PM 35.6 °F 25.2 °F 33.8 °F 93% 29.64 in 10.0 mi NW 18.4 mph 32.2 mph N/A   Overcast
9:35 PM 35.6 °F 23.2 °F 30.2 °F 81% 29.66 in 10.0 mi NW 26.5 mph 31.1 mph N/A   Overcast
9:55 PM 33.8 °F 21.9 °F 30.2 °F 87% 29.68 in 8.0 mi NW 21.9 mph 28.8 mph 0.01 in   Overcast
10:15 PM 33.8 °F 20.8 °F 30.2 °F 87% 29.69 in 7.0 mi NW 26.5 mph 31.1 mph N/A   Overcast
10:35 PM 32.0 °F 19.2 °F 28.4 °F 87% 29.70 in 6.0 mi NW 23.0 mph 33.4 mph N/A   Overcast
10:55 PM 32.0 °F 18.4 °F 28.4 °F 87% 29.71 in 10.0 mi NW 26.5 mph 36.8 mph N/A   Overcast
11:15 PM 32.0 °F 18.4 °F 28.4 °F 87% 29.72 in 10.0 mi NW 26.5 mph 35.7 mph N/A   Overcast
11:35 PM 30.2 °F 16.5 °F 26.6 °F 86% 29.74 in 10.0 mi NW 24.2 mph 29.9 mph N/A   Mostly Cloudy
11:55 PM 30.2 °F 15.7 °F 26.6 °F 86% 29.75 in 10.0 mi NW 27.6 mph 33.4 mph N/A   Overcast